timestamp,wind_dir_avg,wind_spd_avg,wind_spd_max_dir,wind_spd_gust,battery_voltage,lat,long
2022-06-25 00:04:01+00:00,130.0,3.21,123.0,3.83,12.65,47.59359,-54.27349
2022-06-25 00:14:00+00:00,132.0,3.81,116.0,6.3,12.41,47.59359,-54.27349
2022-06-25 00:24:00+00:00,315.0,0.01,125.0,0.0,12.41,47.59359,-54.27349
2022-06-25 00:34:00+00:00,315.0,0.01,125.0,0.0,12.41,47.59359,-54.27349
2022-06-25 00:44:00+00:00,315.0,0.01,125.0,0.0,12.41,47.59359,-54.27349
2022-06-25 00:54:00+00:00,315.0,0.01,125.0,0.0,12.41,47.59359,-54.27349
2022-06-25 01:04:00+00:00,315.0,0.01,125.0,0.0,12.41,47.59359,-54.27349
2022-06-25 01:14:01+00:00,315.0,0.01,125.0,0.0,12.33,47.59359,-54.27349
2022-06-25 01:24:01+00:00,315.0,0.01,125.0,0.0,12.33,47.59359,-54.27349
2022-06-25 01:34:01+00:00,315.0,0.01,125.0,0.0,12.33,47.59359,-54.27349
2022-06-25 01:44:01+00:00,315.0,0.01,197.0,0.0,12.33,47.59359,-54.27349
2022-06-25 01:54:01+00:00,315.0,0.01,200.0,0.0,12.33,47.59359,-54.27349
2022-06-25 02:04:01+00:00,186.0,5.6,189.0,6.46,12.33,47.59359,-54.27349
2022-06-25 02:14:01+00:00,191.0,5.45,191.0,6.08,12.41,47.59359,-54.27349
2022-06-25 02:24:01+00:00,315.0,0.01,190.0,0.0,12.41,47.59359,-54.27349
2022-06-25 02:34:01+00:00,315.0,0.01,185.0,0.0,12.41,47.59359,-54.27349
2022-06-25 02:44:01+00:00,190.0,5.14,189.0,5.67,12.41,47.59359,-54.27349
2022-06-25 02:54:01+00:00,185.0,5.84,192.0,6.26,12.41,47.59359,-54.27349
2022-06-25 03:04:01+00:00,196.0,6.53,201.0,7.13,12.41,47.59359,-54.27349
2022-06-25 03:14:01+00:00,198.0,5.99,201.0,6.68,12.33,47.59359,-54.27349
2022-06-25 03:24:01+00:00,202.0,6.3,203.0,6.86,12.33,47.59359,-54.27349
2022-06-25 03:34:01+00:00,201.0,6.1,198.0,7.67,12.33,47.59359,-54.27349
2022-06-25 03:44:01+00:00,204.0,5.95,207.0,7.02,12.33,47.59359,-54.27349
2022-06-25 03:54:01+00:00,217.0,5.83,208.0,7.09,12.33,47.59359,-54.27349
2022-06-25 04:04:01+00:00,216.0,6.4,217.0,6.88,12.33,47.59359,-54.27349
2022-06-25 04:14:00+00:00,212.0,6.1,215.0,7.14,12.33,47.59359,-54.27349
2022-06-25 04:24:00+00:00,213.0,7.38,215.0,7.98,12.33,47.59359,-54.27349
2022-06-25 04:34:00+00:00,206.0,7.54,223.0,9.36,12.33,47.59359,-54.27349
2022-06-25 04:44:00+00:00,215.0,7.92,229.0,11.47,12.33,47.59359,-54.27349
2022-06-25 04:54:00+00:00,215.0,7.91,234.0,10.66,12.33,47.59359,-54.27349
2022-06-25 05:04:00+00:00,211.0,7.35,210.0,8.3,12.33,47.59359,-54.27349
2022-06-25 05:14:01+00:00,213.0,6.35,211.0,6.78,12.25,47.59359,-54.27349
2022-06-25 05:24:01+00:00,214.0,5.76,211.0,6.38,12.25,47.59359,-54.27349
2022-06-25 05:34:01+00:00,213.0,6.9,210.0,7.65,12.25,47.59359,-54.27349
2022-06-25 05:44:01+00:00,217.0,6.51,224.0,7.15,12.25,47.59359,-54.27349
2022-06-25 05:54:01+00:00,213.0,7.06,212.0,7.73,12.25,47.59359,-54.27349
2022-06-25 06:04:01+00:00,216.0,7.76,226.0,9.38,12.25,47.59359,-54.27349
2022-06-25 06:14:01+00:00,214.0,6.43,215.0,6.87,12.33,47.59359,-54.27349
2022-06-25 06:24:01+00:00,216.0,5.61,217.0,6.09,12.33,47.59359,-54.27349
2022-06-25 06:34:01+00:00,220.0,5.57,218.0,6.21,12.33,47.59359,-54.27349
2022-06-25 06:44:01+00:00,219.0,6.67,238.0,9.87,12.33,47.59359,-54.27349
2022-06-25 06:54:01+00:00,219.0,7.46,230.0,10.13,12.33,47.59359,-54.27349
2022-06-25 07:04:01+00:00,228.0,7.74,236.0,10.62,12.33,47.59359,-54.27349
2022-06-25 07:14:01+00:00,220.0,7.7,230.0,10.81,12.25,47.59359,-54.27349
2022-06-25 07:24:01+00:00,226.0,8.59,234.0,11.29,12.25,47.59359,-54.27349
2022-06-25 07:34:01+00:00,220.0,7.46,232.0,10.29,12.25,47.59359,-54.27349
2022-06-25 07:44:01+00:00,217.0,6.68,232.0,9.19,12.25,47.59359,-54.27349
2022-06-25 07:54:01+00:00,216.0,6.1,218.0,6.52,12.25,47.59359,-54.27349
2022-06-25 08:04:01+00:00,215.0,7.04,227.0,9.42,12.25,47.59359,-54.27349
2022-06-25 08:14:00+00:00,226.0,10.07,234.0,12.2,12.17,47.59359,-54.27349
2022-06-25 08:24:00+00:00,223.0,7.91,234.0,10.96,12.17,47.59359,-54.27349
2022-06-25 08:34:00+00:00,231.0,9.54,235.0,12.24,12.17,47.59359,-54.27349
2022-06-25 08:44:00+00:00,226.0,9.04,232.0,11.66,12.17,47.59359,-54.27349
2022-06-25 08:54:00+00:00,217.0,8.12,232.0,11.66,12.17,47.59359,-54.27349
2022-06-25 09:04:00+00:00,221.0,8.22,230.0,11.36,12.17,47.59359,-54.27349
2022-06-25 09:14:00+00:00,220.0,8.01,230.0,11.72,12.25,47.59359,-54.27349
2022-06-25 09:24:00+00:00,225.0,9.2,233.0,11.57,12.25,47.59359,-54.27349
2022-06-25 09:34:00+00:00,221.0,9.35,230.0,11.54,12.25,47.59359,-54.27349
2022-06-25 09:44:00+00:00,225.0,9.87,231.0,11.62,12.25,47.59359,-54.27349
2022-06-25 09:54:00+00:00,229.0,10.03,232.0,12.08,12.25,47.59359,-54.27349
2022-06-25 10:04:00+00:00,220.0,8.44,232.0,11.05,12.25,47.59359,-54.27349
2022-06-25 10:14:00+00:00,218.0,7.25,236.0,10.54,12.81,47.59359,-54.27349
2022-06-25 10:24:00+00:00,224.0,9.86,230.0,11.99,12.81,47.59359,-54.27349
2022-06-25 10:34:00+00:00,226.0,11.05,226.0,12.99,12.81,47.59359,-54.27349
2022-06-25 10:44:00+00:00,228.0,11.02,228.0,12.09,12.81,47.59359,-54.27349
2022-06-25 10:54:00+00:00,226.0,11.38,229.0,12.57,12.81,47.59359,-54.27349
2022-06-25 11:04:00+00:00,222.0,10.04,229.0,11.97,12.81,47.59359,-54.27349
2022-06-25 11:14:00+00:00,227.0,12.46,227.0,14.08,13.21,47.59359,-54.27349
2022-06-25 11:24:00+00:00,227.0,11.76,231.0,13.46,13.21,47.59359,-54.27349
2022-06-25 11:34:00+00:00,232.0,11.29,229.0,12.33,13.21,47.59359,-54.27349
2022-06-25 11:44:00+00:00,229.0,11.24,230.0,12.41,13.21,47.59359,-54.27349
2022-06-25 11:54:00+00:00,221.0,11.37,215.0,12.94,13.21,47.59359,-54.27349
2022-06-25 12:04:00+00:00,223.0,12.71,221.0,13.97,13.21,47.59359,-54.27349
2022-06-25 12:14:01+00:00,224.0,12.9,222.0,14.08,13.53,47.59359,-54.27349
2022-06-25 12:24:01+00:00,226.0,11.02,227.0,12.63,13.53,47.59359,-54.27349
2022-06-25 12:34:01+00:00,226.0,10.17,231.0,12.47,13.53,47.59359,-54.27349
2022-06-25 12:44:01+00:00,229.0,10.55,232.0,12.21,13.53,47.59359,-54.27349
2022-06-25 12:54:01+00:00,230.0,11.56,233.0,12.63,13.53,47.59359,-54.27349
2022-06-25 13:04:01+00:00,230.0,10.85,234.0,12.29,13.53,47.59359,-54.27349
2022-06-25 13:14:00+00:00,226.0,10.05,232.0,12.02,13.6,47.59359,-54.27349
2022-06-25 13:24:00+00:00,226.0,10.39,232.0,12.36,13.6,47.59359,-54.27349
2022-06-25 13:34:00+00:00,232.0,11.22,232.0,12.4,13.6,47.59359,-54.27349
2022-06-25 13:44:00+00:00,231.0,11.57,230.0,13.0,13.6,47.59359,-54.27349
2022-06-25 13:54:00+00:00,231.0,11.26,233.0,12.53,13.6,47.59359,-54.27349
2022-06-25 14:04:00+00:00,235.0,11.15,234.0,12.7,13.6,47.59359,-54.27349
2022-06-25 14:14:01+00:00,238.0,11.21,235.0,12.27,13.53,47.59359,-54.27349
2022-06-25 14:24:01+00:00,232.0,11.24,233.0,13.32,13.53,47.59359,-54.27349
2022-06-25 14:34:01+00:00,233.0,11.78,232.0,12.74,13.53,47.59359,-54.27349
2022-06-25 14:44:01+00:00,235.0,10.94,238.0,12.61,13.53,47.59359,-54.27349
2022-06-25 14:54:01+00:00,236.0,10.7,236.0,12.82,13.53,47.59359,-54.27349
2022-06-25 15:04:01+00:00,230.0,10.91,227.0,12.95,13.53,47.59359,-54.27349
2022-06-25 15:14:00+00:00,233.0,10.69,235.0,12.69,13.37,47.59359,-54.27349
2022-06-25 15:24:00+00:00,231.0,10.92,234.0,12.85,13.37,47.59359,-54.27349
2022-06-25 15:34:00+00:00,238.0,11.42,235.0,13.25,13.37,47.59359,-54.27349
2022-06-25 15:44:00+00:00,230.0,11.09,236.0,12.92,13.37,47.59359,-54.27349
2022-06-25 15:54:00+00:00,230.0,10.43,231.0,12.63,13.37,47.59359,-54.27349
2022-06-25 16:04:00+00:00,227.0,11.09,220.0,13.25,13.37,47.59359,-54.27349
2022-06-25 16:14:00+00:00,230.0,10.79,234.0,12.77,13.53,47.59359,-54.27349
2022-06-25 16:24:00+00:00,228.0,10.98,229.0,12.99,13.53,47.59359,-54.27349
2022-06-25 16:34:00+00:00,227.0,10.97,231.0,12.97,13.53,47.59359,-54.27349
2022-06-25 16:44:00+00:00,231.0,11.98,231.0,13.2,13.53,47.59359,-54.27349
2022-06-25 16:54:00+00:00,230.0,11.6,232.0,13.04,13.53,47.59359,-54.27349
2022-06-25 17:04:00+00:00,229.0,12.05,232.0,13.21,13.53,47.59359,-54.27349
2022-06-25 17:14:01+00:00,230.0,12.02,229.0,13.34,13.68,47.59359,-54.27349
2022-06-25 17:24:01+00:00,229.0,11.55,231.0,13.04,13.68,47.59359,-54.27349
2022-06-25 17:34:01+00:00,226.0,11.86,233.0,14.97,13.68,47.59359,-54.27349
2022-06-25 17:44:01+00:00,230.0,10.75,236.0,12.37,13.68,47.59359,-54.27349
2022-06-25 17:54:01+00:00,229.0,9.56,231.0,11.73,13.68,47.59359,-54.27349
2022-06-25 18:04:01+00:00,235.0,9.49,239.0,11.74,13.68,47.59359,-54.27349
2022-06-25 18:14:00+00:00,237.0,9.67,243.0,11.45,13.37,47.59359,-54.27349
2022-06-25 18:24:00+00:00,243.0,9.85,247.0,11.51,13.37,47.59359,-54.27349
2022-06-25 18:34:00+00:00,218.0,6.51,233.0,7.78,13.37,47.59359,-54.27349
2022-06-25 18:44:00+00:00,226.0,9.19,235.0,11.73,13.37,47.59359,-54.27349
2022-06-25 18:54:00+00:00,231.0,11.32,234.0,12.73,13.37,47.59359,-54.27349
2022-06-25 19:04:00+00:00,234.0,11.25,234.0,12.46,13.37,47.59359,-54.27349
2022-06-25 19:14:01+00:00,222.0,12.29,228.0,13.85,13.44,47.59359,-54.27349
2022-06-25 19:24:01+00:00,229.0,12.03,227.0,12.88,13.44,47.59359,-54.27349
2022-06-25 19:34:01+00:00,232.0,11.72,242.0,14.22,13.44,47.59359,-54.27349
2022-06-25 19:44:01+00:00,224.0,12.27,230.0,13.48,13.44,47.59359,-54.27349
2022-06-25 19:54:01+00:00,227.0,12.03,227.0,13.63,13.44,47.59359,-54.27349
2022-06-25 20:04:01+00:00,229.0,12.17,230.0,13.39,13.44,47.59359,-54.27349
2022-06-25 20:14:00+00:00,231.0,11.69,233.0,12.76,13.29,47.59359,-54.27349
2022-06-25 20:24:00+00:00,234.0,10.94,235.0,12.34,13.29,47.59359,-54.27349
2022-06-25 20:34:00+00:00,232.0,10.9,232.0,12.36,13.29,47.59359,-54.27349
2022-06-25 20:44:00+00:00,228.0,11.45,230.0,13.02,13.29,47.59359,-54.27349
2022-06-25 20:54:00+00:00,225.0,11.2,226.0,12.96,13.29,47.59359,-54.27349
2022-06-25 21:04:00+00:00,225.0,11.02,228.0,13.11,13.29,47.59359,-54.27349
2022-06-25 21:14:00+00:00,225.0,12.02,228.0,13.6,13.13,47.59359,-54.27349
2022-06-25 21:24:00+00:00,223.0,11.32,227.0,13.2,13.13,47.59359,-54.27349
2022-06-25 21:34:00+00:00,228.0,12.08,227.0,13.37,13.13,47.59359,-54.27349
2022-06-25 21:44:00+00:00,225.0,11.98,228.0,13.63,13.13,47.59359,-54.27349
2022-06-25 21:54:00+00:00,224.0,11.25,228.0,13.09,13.13,47.59359,-54.27349
2022-06-25 22:04:00+00:00,223.0,11.83,225.0,13.79,13.13,47.59359,-54.27349
2022-06-25 22:14:01+00:00,223.0,11.92,226.0,13.91,12.81,47.59359,-54.27349
2022-06-25 22:24:01+00:00,214.0,9.98,222.0,13.63,12.81,47.59359,-54.27349
2022-06-25 22:34:01+00:00,214.0,9.92,228.0,13.17,12.81,47.59359,-54.27349
2022-06-25 22:44:01+00:00,218.0,10.25,229.0,13.08,12.81,47.59359,-54.27349
2022-06-25 22:54:01+00:00,217.0,10.08,224.0,13.83,12.81,47.59359,-54.27349
2022-06-25 23:04:01+00:00,225.0,11.55,229.0,13.42,12.81,47.59359,-54.27349
2022-06-25 23:14:01+00:00,215.0,9.93,224.0,13.47,12.49,47.59359,-54.27349
2022-06-25 23:24:01+00:00,207.0,8.3,217.0,9.74,12.49,47.59359,-54.27349
2022-06-25 23:34:01+00:00,205.0,7.63,207.0,8.49,12.49,47.59359,-54.27349
2022-06-25 23:44:01+00:00,208.0,7.79,223.0,9.08,12.49,47.59359,-54.27349
2022-06-25 23:54:01+00:00,206.0,8.27,219.0,10.44,12.49,47.59359,-54.27349
